Wind_Speed
11 20 19 19 18 18 19 19 18 17 16 16 14 12 10 9 7 7 5 6 9 13 13 14 13 12 10 10 11 12 16 16 13 13 14 13 13 13 13 14 14 17 16
10 18 20 17 17 18 18 18 18 18 18 17 15 12 12 10 9 9 8 10 12 11 10 11 12 11 11 14 13 14 16 14 12 13 12 12 12 13 12 11 10 10 8
10 16 20 18 17 17 18 17 18 18 18 17 16 13 13 11 12 11 10 9 9 9 10 11 13 12 17 14 13 18 21 17 14 14 14 12 11 13 12 10 8 7 10
9 15 19 20 18 16 17 17 17 17 17 17 15 15 14 13 14 12 12 7 5 8 9 11 13 13 16 14 17 18 18 14 11 12 17 18 19 18 20 19 18 17 22
10 13 16 21 19 17 17 17 17 16 15 17 17 15 13 14 14 13 10 8 5 6 10 13 14 14 14 14 17 17 14 12 12 19 26 24 19 20 19 17 14 20 21
10 12 14 17 18 17 16 17 18 17 17 17 16 16 16 15 13 13 12 9 6 7 9 13 13 13 12 15 14 13 10 10 15 21 24 21 23 18 15 14 17 22 21
11 11 13 17 18 16 16 16 18 18 17 16 15 16 17 16 15 14 11 9 7 8 9 13 14 12 14 13 14 12 14 24 22 21 20 17 16 13 14 16 16 22 18
10 10 12 15 19 17 15 15 18 19 19 17 18 16 16 15 15 13 11 10 8 9 9 11 14 14 13 13 12 13 22 20 18 20 16 12 13 10 13 13 20 21 16
13 12 13 14 18 19 18 14 17 19 20 20 19 18 15 9 10 10 9 10 10 10 9 12 14 16 14 15 14 22 20 16 16 16 11 11 11 12 12 14 19 18 15
15 14 14 16 17 21 21 19 17 17 22 21 21 18 14 11 8 8 9 9 11 10 10 13 14 17 15 14 20 18 17 17 12 10 12 15 12 9 15 12 13 11 13
17 15 17 17 18 19 22 24 21 18 19 23 22 20 17 13 9 8 9 11 11 11 12 13 15 18 16 15 21 16 17 14 8 6 12 12 9 11 11 14 12 11 12
16 16 17 18 18 18 19 24 24 22 21 24 23 23 18 14 10 9 11 11 12 13 14 17 18 19 18 17 23 17 16 13 9 8 13 12 7 9 10 13 12 12 12
16 17 17 19 21 22 22 23 26 26 23 25 25 25 20 17 14 12 13 14 14 15 19 19 20 21 18 19 22 19 15 9 8 7 11 10 9 8 10 11 12 11 13
23 21 21 22 24 25 26 26 27 28 27 26 28 27 23 21 18 15 15 15 15 16 21 20 21 21 20 20 21 17 15 9 8 8 12 11 12 7 8 9 13 10 12
28 26 26 25 25 27 28 29 30 30 30 28 29 29 27 25 22 18 16 16 15 17 22 22 22 23 22 21 22 18 17 11 7 8 13 13 13 7 9 10 11 9 11
29 28 26 28 28 27 29 29 30 32 32 31 32 31 29 28 26 22 19 18 17 18 23 23 23 25 23 21 23 20 16 12 6 7 13 16 15 8 9 9 9 9 9
26 26 29 30 30 29 28 28 31 30 31 30 32 32 32 32 29 27 22 20 19 19 24 24 25 25 23 25 23 19 16 12 6 6 14 12 11 9 10 8 7 8 8
22 23 25 31 29 30 30 27 28 29 29 29 28 30 31 34 37 31 27 22 21 21 25 28 28 28 25 27 25 20 17 12 7 8 8 8 10 10 10 9 8 6 7
20 22 25 28 34 33 31 28 28 28 28 28 27 27 26 28 38 36 30 27 23 23 27 30 31 30 29 27 24 21 18 14 10 8 7 8 7 7 10 11 11 8 5
25 28 27 28 29 33 34 32 32 32 30 29 26 22 22 25 33 36 35 30 27 26 29 33 33 31 30 28 24 22 19 16 13 11 8 9 8 6 8 7 7 9 9
29 31 33 35 33 33 35 37 37 36 33 30 28 26 26 26 29 34 39 30 29 28 30 34 34 33 33 31 28 25 22 20 17 15 13 11 10 8 9 11 9 7 8
29 26 30 37 36 33 33 35 38 36 35 33 31 29 29 29 27 30 26 28 27 29 32 34 35 35 35 34 32 31 26 23 23 21 18 16 15 12 10 10 11 10 9
24 24 27 35 37 32 30 34 38 37 37 37 36 34 32 30 29 30 32 29 31 29 31 36 37 37 39 39 35 24 16 13 25 25 22 21 20 17 14 13 12 12 11
20 22 24 29 32 31 30 31 35 37 40 38 37 36 35 34 33 32 35 33 30 36 30 36 38 38 40 42 37 33 20 17 19 15 28 27 26 23 19 16 15 14 13
11 15 21 25 27 28 28 28 30 34 36 38 39 38 38 36 36 38 37 40 38 39 39 31 41 42 43 40 40 38 31 19 19 13 10 26 34 27 24 20 18 16 15
5 9 14 20 23 25 25 26 28 30 35 40 41 42 42 40 37 41 45 48 40 44 46 36 42 46 45 41 41 40 38 28 21 13 11 5 19 28 26 23 21 19 17
Wind_Direction
172 171 172 176 181 179 175 171 168 166 164 162 163 159 150 147 144 142 147 144 137 138 133 128 119 112 113 111 105 110 109 115 115 104 120 115 124 123 112 103 107 102 103
163 169 171 180 187 187 184 180 172 172 171 171 170 170 160 155 137 130 115 127 133 129 127 125 122 120 107 98 100 105 113 108 101 105 125 124 127 138 129 125 119 117 115
158 172 170 181 189 191 187 183 179 173 179 170 172 175 166 161 143 160 147 149 135 137 132 126 123 116 105 103 105 101 102 107 103 97 93 115 129 121 114 107 113 102 88
153 172 176 183 191 191 186 186 183 183 182 170 167 165 162 148 156 170 165 165 154 150 141 132 137 125 128 131 116 114 116 114 101 88 94 94 92 100 95 93 95 94 91
154 170 179 183 194 195 191 190 188 186 180 167 168 164 152 159 172 175 174 169 180 171 149 146 143 134 131 131 128 122 116 114 109 99 96 91 94 93 101 106 109 106 98
158 166 179 185 193 194 193 193 189 187 175 170 170 162 166 175 181 177 175 179 180 183 161 141 140 145 146 140 132 136 122 129 110 111 102 107 103 113 114 117 99 105 98
164 167 180 184 196 198 200 206 194 185 181 175 173 174 174 178 182 187 185 182 187 190 173 146 148 162 138 143 150 138 122 117 118 112 117 116 111 127 121 104 113 105 96
172 172 184 185 194 201 195 201 192 184 181 181 177 185 181 179 185 194 185 182 188 196 188 161 156 134 137 149 144 139 131 125 124 121 122 135 136 118 114 114 123 110 105
180 183 190 193 191 203 200 206 197 188 182 190 192 199 215 227 196 193 188 189 187 202 186 171 162 141 144 147 133 136 134 132 129 132 141 108 107 107 105 107 134 121 107
198 192 193 195 196 200 206 207 211 201 193 197 201 209 220 234 230 206 193 196 195 203 186 182 164 150 155 145 141 139 139 139 141 153 123 116 113 108 106 105 119 120 126
203 206 200 201 204 206 208 208 213 214 208 206 208 211 219 230 228 220 206 199 205 206 185 183 168 155 160 150 154 147 147 145 151 154 113 116 136 117 119 110 117 119 103
198 210 213 209 206 215 218 215 216 213 212 213 215 216 221 227 228 221 215 207 204 199 180 176 167 163 167 157 159 157 156 165 176 148 129 135 146 125 112 112 106 103 102
221 218 220 223 219 214 219 224 220 218 215 215 218 226 224 230 223 218 215 206 206 190 173 175 170 173 166 160 158 159 162 171 188 137 134 134 138 128 108 117 108 108 98
244 235 229 227 226 224 223 224 224 221 221 221 223 221 227 227 230 222 216 213 211 191 184 183 181 176 168 166 164 162 166 177 181 152 148 134 131 142 127 116 116 113 108
248 243 238 234 227 225 225 225 224 227 226 227 230 229 224 229 231 231 221 216 213 201 190 187 183 178 174 172 171 172 170 174 168 160 140 147 135 164 134 124 121 116 100
248 241 237 229 223 225 226 225 225 228 231 231 232 235 232 229 233 230 225 219 217 209 198 190 186 180 178 179 172 178 182 178 186 182 153 155 160 162 127 124 124 116 113
248 243 233 228 223 222 227 227 228 229 233 235 236 237 235 238 230 234 224 222 220 212 204 188 187 184 182 175 174 180 185 184 177 184 154 158 164 158 144 151 141 128 112
240 238 233 226 224 224 224 226 228 228 231 235 237 243 241 232 239 232 229 225 222 214 203 191 188 186 185 178 177 183 186 185 185 166 158 158 158 160 164 164 146 140 129
243 241 237 232 230 226 223 223 226 226 226 229 234 237 236 237 232 226 229 221 220 214 204 195 192 191 187 183 185 181 190 190 188 180 172 184 174 197 187 164 159 155 155
252 247 241 234 229 224 223 222 222 224 226 225 227 230 234 238 228 224 229 217 214 212 204 197 196 194 191 187 184 185 189 196 196 200 206 205 215 232 227 210 182 169 157
260 248 238 227 224 221 220 219 219 219 219 219 219 215 220 232 235 239 228 213 214 213 209 201 195 196 191 191 187 187 186 193 201 209 214 223 229 230 223 227 221 215 184
253 242 236 222 222 221 221 221 222 218 217 221 220 226 228 229 229 231 236 223 216 215 207 197 197 194 201 193 194 186 176 195 207 209 218 228 233 238 236 232 225 221 221
236 238 235 222 217 219 220 221 221 222 222 220 224 226 226 229 231 231 226 225 221 218 213 199 198 202 200 193 197 189 174 196 205 215 218 230 236 235 241 235 227 219 222
241 237 228 221 214 214 217 222 224 226 226 230 232 232 230 231 233 234 225 219 226 213 213 209 206 206 208 198 197 206 201 199 189 215 223 228 235 236 239 236 229 224 224
226 216 209 208 211 212 217 223 226 228 232 235 233 234 236 234 235 237 229 223 215 209 210 218 213 210 215 211 203 204 210 202 204 210 214 227 232 236 235 235 230 227 226
137 183 198 200 204 213 223 230 233 236 236 236 236 235 232 237 240 239 227 221 222 222 220 215 218 216 216 217 213 213 214 210 207 210 223 266 234 234 234 236 232 230 229
Height
1518 1520 1523 1526 1528 1530 1533 1536 1538 1540 1543 1545 1547 1548 1550 1552 1554 1555 1555 1556 1557 1558 1560 1561 1563 1563 1563 1563 1563 1563 1564 1564 1564 1564 1565 1566 1567 1569 1569 1569 1569 1569 1569
1517 1520 1523 1526 1528 1530 1533 1536 1538 1541 1543 1545 1548 1549 1551 1553 1555 1556 1557 1557 1558 1559 1560 1562 1564 1565 1564 1565 1565 1565 1565 1565 1565 1565 1566 1567 1569 1571 1571 1571 1571 1571 1571
1518 1520 1523 1526 1528 1530 1532 1535 1538 1541 1543 1545 1547 1549 1552 1554 1556 1557 1558 1558 1558 1560 1562 1564 1565 1566 1567 1568 1567 1567 1567 1567 1567 1567 1568 1569 1571 1572 1572 1573 1574 1573 1573
1518 1520 1522 1526 1528 1530 1533 1535 1538 1540 1542 1545 1548 1550 1552 1555 1557 1558 1558 1559 1560 1561 1562 1564 1566 1567 1569 1569 1569 1570 1570 1569 1569 1570 1571 1573 1573 1574 1575 1575 1576 1576 1577
1518 1520 1522 1525 1528 1530 1533 1536 1538 1540 1543 1545 1548 1551 1553 1555 1557 1557 1558 1559 1561 1562 1563 1565 1567 1568 1569 1570 1571 1571 1572 1572 1572 1573 1575 1576 1578 1578 1578 1579 1578 1579 1579
1518 1520 1522 1525 1528 1530 1533 1535 1538 1541 1543 1545 1548 1551 1553 1555 1556 1557 1557 1559 1561 1563 1564 1566 1568 1569 1569 1571 1572 1573 1574 1574 1575 1576 1578 1579 1580 1580 1581 1581 1581 1582 1582
1518 1519 1522 1524 1527 1530 1533 1535 1538 1540 1543 1546 1548 1550 1553 1554 1555 1556 1557 1559 1561 1563 1564 1565 1569 1570 1571 1572 1574 1575 1576 1576 1577 1579 1580 1582 1583 1583 1583 1583 1584 1585 1585
1518 1519 1521 1524 1527 1530 1533 1535 1537 1540 1543 1545 1548 1550 1552 1553 1554 1555 1557 1559 1561 1562 1564 1565 1568 1570 1573 1574 1575 1576 1578 1579 1580 1582 1584 1584 1585 1585 1584 1584 1586 1587 1587
1517 1519 1521 1523 1526 1529 1532 1535 1537 1539 1542 1545 1548 1549 1551 1552 1553 1555 1557 1559 1561 1562 1564 1566 1568 1572 1574 1575 1577 1579 1580 1582 1583 1584 1585 1587 1587 1586 1586 1586 1587 1587 1588
1515 1518 1520 1522 1524 1527 1530 1533 1536 1539 1541 1544 1547 1549 1551 1553 1554 1555 1557 1559 1560 1562 1564 1566 1568 1572 1575 1577 1579 1582 1583 1585 1585 1585 1586 1589 1590 1589 1588 1589 1589 1589 1588
1514 1516 1518 1520 1523 1525 1528 1531 1534 1537 1540 1543 1545 1548 1550 1552 1554 1555 1557 1558 1560 1561 1564 1565 1568 1572 1576 1578 1580 1582 1585 1587 1587 1587 1588 1590 1591 1591 1591 1590 1590 1589 1589
1512 1514 1516 1519 1521 1524 1526 1529 1532 1534 1537 1540 1543 1545 1549 1551 1553 1555 1556 1558 1559 1561 1563 1566 1568 1571 1575 1578 1581 1584 1586 1587 1588 1589 1590 1592 1592 1592 1592 1591 1591 1591 1591
1510 1511 1514 1516 1519 1521 1523 1526 1529 1531 1534 1538 1541 1544 1547 1550 1552 1554 1555 1557 1558 1560 1563 1566 1568 1571 1574 1577 1581 1584 1587 1588 1589 1589 1591 1593 1594 1593 1594 1593 1592 1593 1592
1504 1507 1510 1512 1514 1517 1519 1522 1525 1528 1531 1535 1538 1541 1544 1547 1549 1551 1553 1556 1558 1560 1562 1565 1568 1571 1574 1577 1581 1584 1587 1589 1589 1590 1592 1594 1595 1595 1595 1595 1594 1594 1594
1498 1501 1504 1507 1509 1512 1514 1518 1521 1524 1528 1531 1534 1537 1541 1544 1547 1549 1551 1554 1556 1559 1562 1565 1568 1571 1574 1577 1581 1584 1586 1589 1589 1590 1592 1595 1595 1596 1596 1597 1597 1596 1596
1491 1494 1498 1500 1503 1507 1509 1512 1516 1520 1524 1527 1531 1534 1537 1540 1544 1546 1549 1552 1555 1557 1560 1564 1568 1571 1573 1577 1580 1583 1586 1588 1589 1591 1593 1595 1596 1597 1597 1598 1599 1598 1597
1485 1488 1490 1493 1498 1501 1504 1508 1511 1516 1519 1523 1526 1530 1533 1536 1540 1543 1546 1549 1552 1555 1558 1563 1567 1571 1573 1576 1580 1583 1586 1588 1590 1591 1593 1596 1597 1599 1599 1599 1600 1600 1599
1479 1481 1484 1488 1491 1495 1499 1503 1506 1510 1515 1518 1522 1525 1528 1531 1536 1539 1542 1546 1549 1553 1556 1561 1565 1569 1573 1575 1577 1582 1585 1588 1590 1592 1594 1596 1598 1599 1599 1599 1600 1601 1600
1474 1476 1478 1480 1484 1489 1493 1497 1501 1505 1509 1512 1516 1520 1523 1527 1530 1534 1538 1541 1545 1550 1553 1559 1563 1567 1571 1575 1578 1580 1585 1588 1590 1592 1594 1596 1598 1599 1599 1599 1599 1600 1601
1467 1468 1471 1474 1477 1481 1486 1491 1495 1499 1503 1507 1511 1515 1519 1523 1527 1527 1532 1538 1541 1546 1550 1555 1561 1566 1569 1574 1578 1580 1584 1587 1589 1592 1594 1596 1597 1598 1598 1599 1598 1599 1601
1457 1458 1460 1464 1468 1473 1477 1482 1487 1491 1497 1501 1506 1511 1515 1519 1522 1526 1527 1533 1540 1543 1546 1552 1557 1563 1568 1571 1576 1579 1581 1585 1588 1590 1593 1595 1596 1597 1597 1598 1597 1598 1599
1448 1449 1452 1456 1461 1466 1471 1477 1481 1487 1492 1497 1501 1505 1510 1514 1518 1522 1526 1531 1537 1541 1545 1548 1555 1560 1565 1569 1573 1575 1578 1583 1585 1587 1589 1592 1594 1595 1596 1596 1596 1597 1597
1440 1442 1445 1449 1455 1460 1466 1470 1476 1482 1487 1491 1495 1499 1503 1507 1512 1515 1521 1524 1530 1538 1543 1546 1551 1556 1560 1565 1569 1572 1574 1575 1580 1583 1586 1589 1590 1591 1593 1594 1594 1595 1596
1434 1436 1440 1445 1451 1456 1460 1465 1470 1474 1478 1484 1488 1492 1496 1501 1505 1509 1514 1518 1522 1528 1536 1543 1548 1553 1558 1560 1564 1569 1570 1570 1575 1579 1581 1583 1586 1587 1590 1591 1592 1593 1594
1429 1432 1435 1441 1447 1452 1457 1462 1466 1470 1475 1478 1483 1487 1491 1493 1498 1502 1507 1511 1517 1522 1526 1534 1544 1547 1554 1558 1560 1564 1566 1569 1570 1574 1574 1577 1579 1582 1585 1587 1589 1591 1592
1429 1431 1435 1440 1444 1449 1453 1457 1461 1465 1468 1471 1474 1478 1482 1485 1488 1492 1498 1502 1509 1512 1516 1522 1537 1544 1548 1553 1558 1561 1563 1567 1568 1571 1573 1574 1574 1578 1582 1584 1585 1587 1589